STARLINK-31955, 59939

Orbit data source: Space-Track

STARLINK-31955, 59939 is a payload satellite owned by SpaceX/Seattle (US) in LEO that was launched on Sat, 01 Jun 2024 UTC via an FALCON 9 launch vehicle from the Air Force Eastern Test Range (AFETR). Payload-class satellites include a variety of spacecraft equipped with specific instruments for various scientific and technological missions. These include communications satellites like Starlink; space stations such as the ISS; scientific satellites like the Hubble; Earth observation satellites from companies like Planet Labs, Umbra, and HawkEye 360; GPS; miniature CubeSats for education and research; and military/defense satellites.

Loading next visibility...
Identifier
59939, 2024-106T
Orbit
LEO
Country
Flag of USUS
Related business
Manufacturer
SpaceX/Seattle
Mission
Operational Commercial Communications
Bus & Motor
STARLINK V2M, Unknown motor
Mass
730 kg wet, ~700 kg dry
Launch date (UTC)
2024-06-01 (2 years ago)
Launch vehicle
FALCON 9
Launch site
Air Force Eastern Test Range (AFETR)
Object type
Payload
Rocket body
Debris
Shape & HBR
Box + 2 Pan, 17.7 m
Radar Cross Section
33.884 m², Large (>1 m²)

Expand to show TLE details & history
Last TLE update: 9 hours ago

TLE from 9 hours ago
0 STARLINK-31955
1 59939U 24106T   26126.08518414  .00029511  00000-0  10497-2 0  9997
2 59939  42.9971   8.1330 0002906 251.9161 108.1375 15.28440697109344
Epoch: 2026-05-06T02:02Z
TLE epoch observation values (Epoch: 2026-05-06T02:02:39.909Z)
Latitude
0.00001°
Longitude
113.51598°
Altitude
480.869 km
Speed
7.627 km/s
True Right ascension
00h 32m 31s
True Declination
0° 00' 00"
Sunlit
Object was in daylight at epoch
Visualization orbit readout
Latitude
Unknown
Longitude
Unknown
Altitude
Unknown
Speed
Unknown
Apparent Right ascension
Unknown
Apparent Declination
Unknown
Sunlit
N/A
Visualization observer readout
Local Sidereal Time
18:40:10
Azimuth
Unknown
Elevation
Unknown
Doppler factor
Unknown
Orbital elements
Apogee altitude
484.413 km
Perigee altitude
480.426 km
Semi-major axis
6,860.556 km
Eccentricity
0.00029
Inclination
42.9971°
RAAN
8.133°
Arg. of periapsis
251.9161°
True anomaly
108.16914°
Mean anomaly
108.1375°
Eccentric anomaly
108.15332°
Mean motion
3.81948 °/min
Orbital period
94.25 mins
BSTAR
0.0010497
Loading maneuver chart data...
Computing Atmospheric mass density...
Loading historical data...
Loading historical data...
Loading historical data...
Loading historical data...
Loading historical data...
Loading historical data...
Loading historical data...

Documentation

Showing up to 5 results
|